When you browse on this site, cookies collect data to enhance your experience and personalize the content and advertising you see.
Visit our Privacy Policy to learn more. By continuing to use the site, you agree to this use of cookies and data.
  • In Österreich
  • Länderverzeichnis
  • Für 7 Tage
  • Wassertemperatur
  • Wetterkarte
  • News
  • Widgets
  • user-avatar
    Anmelden

    Stündliche Wetter Gubovskiy

    Heute, 6 Juni, Samstag

    Zeit Temperatur Niederschläge Wind Luftdruck Luftfeuchtigkeit
    00:00 +16°C° 0.4 mm 5 m/S 751 mmHg 67%
    01:00 +15°C° 0.4 mm 4 m/S 751 mmHg 75%
    02:00 +15°C° 0.4 mm 5 m/S 751 mmHg 70%
    03:00 +15°C° 0.4 mm 7 m/S 751 mmHg 65%
    04:00 +15°C° 0.4 mm 8 m/S 751 mmHg 60%
    05:00 +15°C° 0.1 mm 8 m/S 751 mmHg 60%
    06:00 +16°C° 0.1 mm 8 m/S 751 mmHg 60%
    07:00 +16°C° 0.1 mm 7 m/S 751 mmHg 59%
    08:00 +16°C° 0.3 mm 8 m/S 751 mmHg 62%
    09:00 +16°C° 0.3 mm 8 m/S 751 mmHg 65%
    10:00 +16°C° 0.3 mm 9 m/S 751 mmHg 67%
    11:00 +16°C° 1.4 mm 8 m/S 752 mmHg 72%
    12:00 +16°C° 1.4 mm 7 m/S 752 mmHg 77%
    13:00 +16°C° 1.4 mm 7 m/S 752 mmHg 81%
    14:00 +19°C° 0.1 mm 6 m/S 752 mmHg 77%
    15:00 +20°C° 0.1 mm 6 m/S 752 mmHg 73%
    16:00 +21°C° 0.1 mm 6 m/S 752 mmHg 69%
    17:00 +21°C° 1.9 mm 5 m/S 752 mmHg 71%
    18:00 +20°C° 1.9 mm 5 m/S 752 mmHg 74%
    19:00 +20°C° 1.9 mm 5 m/S 752 mmHg 77%
    20:00 +19°C° 0.6 mm 5 m/S 752 mmHg 78%
    21:00 +16°C° 0.6 mm 5 m/S 753 mmHg 79%
    22:00 +15°C° 0.6 mm 5 m/S 753 mmHg 80%
    23:00 +14°C° 0 mm 4 m/S 753 mmHg 81%

    Morgen, 7 Juni, Sonntag

    Zeit Temperatur Niederschläge Wind Luftdruck Luftfeuchtigkeit
    00:00 +14°C° 0 mm 4 m/S 753 mmHg 81%
    01:00 +13°C° 0 mm 3 m/S 753 mmHg 81%
    02:00 +13°C° 0 mm 3 m/S 753 mmHg 82%
    03:00 +13°C° 0 mm 2 m/S 753 mmHg 83%
    04:00 +13°C° 0 mm 2 m/S 754 mmHg 84%
    05:00 +14°C° 0 mm 2 m/S 753 mmHg 81%
    06:00 +14°C° 0 mm 3 m/S 753 mmHg 77%
    07:00 +16°C° 0 mm 3 m/S 753 mmHg 73%
    08:00 +18°C° 0 mm 3 m/S 753 mmHg 68%
    09:00 +20°C° 0 mm 4 m/S 754 mmHg 64%
    10:00 +22°C° 0 mm 4 m/S 754 mmHg 59%
    11:00 +23°C° 0 mm 4 m/S 753 mmHg 56%
    12:00 +25°C° 0 mm 4 m/S 753 mmHg 54%
    13:00 +25°C° 0 mm 5 m/S 753 mmHg 52%
    14:00 +25°C° 0 mm 5 m/S 753 mmHg 52%
    15:00 +25°C° 0 mm 4 m/S 753 mmHg 53%
    16:00 +25°C° 0 mm 4 m/S 753 mmHg 53%
    17:00 +23°C° 0.3 mm 4 m/S 753 mmHg 61%
    18:00 +22°C° 0.3 mm 3 m/S 753 mmHg 69%
    19:00 +20°C° 0.3 mm 3 m/S 752 mmHg 76%
    20:00 +19°C° 0.1 mm 2 m/S 753 mmHg 79%
    21:00 +19°C° 0.1 mm 2 m/S 753 mmHg 82%
    22:00 +19°C° 0.1 mm 1 m/S 753 mmHg 86%
    23:00 +18°C° 0.8 mm 1 m/S 753 mmHg 87%

    übermorgen, 8 Juni, Montag

    Zeit Temperatur Niederschläge Wind Luftdruck Luftfeuchtigkeit
    00:00 +18°C° 0.8 mm 1 m/S 753 mmHg 89%
    01:00 +18°C° 0.8 mm 1 m/S 753 mmHg 91%
    02:00 +17°C° 0.3 mm 2 m/S 753 mmHg 89%
    03:00 +17°C° 0.3 mm 2 m/S 753 mmHg 87%
    04:00 +17°C° 0.3 mm 3 m/S 753 mmHg 86%
    05:00 +17°C° 0 mm 4 m/S 753 mmHg 84%
    06:00 +17°C° 0 mm 5 m/S 753 mmHg 83%
    07:00 +17°C° 0 mm 5 m/S 753 mmHg 82%
    08:00 +19°C° 0 mm 5 m/S 753 mmHg 75%
    09:00 +20°C° 0 mm 5 m/S 753 mmHg 68%
    10:00 +21°C° 0 mm 4 m/S 753 mmHg 61%
    11:00 +21°C° 0 mm 5 m/S 753 mmHg 58%
    12:00 +22°C° 0 mm 5 m/S 753 mmHg 56%
    13:00 +23°C° 0 mm 5 m/S 753 mmHg 53%
    14:00 +23°C° 0 mm 5 m/S 753 mmHg 52%
    15:00 +25°C° 0 mm 5 m/S 753 mmHg 50%
    16:00 +25°C° 0 mm 5 m/S 753 mmHg 49%
    17:00 +23°C° 0 mm 5 m/S 753 mmHg 52%
    18:00 +23°C° 0 mm 5 m/S 753 mmHg 54%
    19:00 +22°C° 0 mm 5 m/S 753 mmHg 56%
    20:00 +21°C° 0 mm 5 m/S 753 mmHg 57%
    21:00 +21°C° 0 mm 5 m/S 753 mmHg 57%
    22:00 +20°C° 0 mm 5 m/S 754 mmHg 58%
    23:00 +19°C° 0 mm 5 m/S 754 mmHg 56%

    9 Juni, Dienstag

    Zeit Temperatur Niederschläge Wind Luftdruck Luftfeuchtigkeit
    00:00 +19°C° 0 mm 6 m/S 754 mmHg 54%
    01:00 +19°C° 0 mm 6 m/S 754 mmHg 53%
    02:00 +19°C° 0 mm 6 m/S 754 mmHg 52%
    03:00 +19°C° 0 mm 6 m/S 755 mmHg 51%
    04:00 +17°C° 0 mm 6 m/S 755 mmHg 51%
    05:00 +19°C° 0 mm 6 m/S 755 mmHg 54%
    06:00 +19°C° 0 mm 6 m/S 756 mmHg 56%
    07:00 +20°C° 0 mm 6 m/S 756 mmHg 59%
    08:00 +21°C° 0 mm 5 m/S 756 mmHg 57%
    09:00 +22°C° 0 mm 5 m/S 757 mmHg 54%
    10:00 +25°C° 0 mm 4 m/S 757 mmHg 52%
    11:00 +26°C° 0 mm 5 m/S 757 mmHg 48%
    12:00 +27°C° 0 mm 5 m/S 757 mmHg 44%
    13:00 +28°C° 0 mm 5 m/S 757 mmHg 40%
    14:00 +28°C° 0 mm 5 m/S 757 mmHg 40%
    15:00 +28°C° 0 mm 5 m/S 757 mmHg 40%
    16:00 +28°C° 0 mm 4 m/S 757 mmHg 39%
    17:00 +27°C° 0 mm 4 m/S 757 mmHg 45%
    18:00 +26°C° 0 mm 3 m/S 757 mmHg 50%
    19:00 +25°C° 0 mm 2 m/S 757 mmHg 55%
    20:00 +24°C° 0 mm 3 m/S 757 mmHg 55%
    21:00 +22°C° 0 mm 3 m/S 757 mmHg 55%
    22:00 +20°C° 0 mm 3 m/S 757 mmHg 55%
    23:00 +20°C° 0 mm 3 m/S 757 mmHg 56%

    10 Juni, Mittwoch

    Zeit Temperatur Niederschläge Wind Luftdruck Luftfeuchtigkeit
    00:00 +20°C° 0 mm 3 m/S 757 mmHg 56%
    01:00 +19°C° 0 mm 3 m/S 757 mmHg 57%
    02:00 +19°C° 0 mm 3 m/S 757 mmHg 60%
    03:00 +18°C° 0 mm 3 m/S 757 mmHg 63%
    04:00 +18°C° 0 mm 3 m/S 757 mmHg 65%
    05:00 +19°C° 0 mm 3 m/S 757 mmHg 65%
    06:00 +21°C° 0 mm 4 m/S 757 mmHg 64%
    07:00 +22°C° 0 mm 4 m/S 757 mmHg 63%
    08:00 +25°C° 0 mm 4 m/S 757 mmHg 57%
    09:00 +26°C° 0 mm 3 m/S 757 mmHg 52%
    10:00 +28°C° 0 mm 3 m/S 758 mmHg 46%
    11:00 +29°C° 0 mm 3 m/S 758 mmHg 41%
    12:00 +30°C° 0 mm 3 m/S 758 mmHg 37%
    13:00 +31°C° 0 mm 2 m/S 758 mmHg 32%
    14:00 +31°C° 0 mm 2 m/S 757 mmHg 32%
    15:00 +31°C° 0 mm 2 m/S 757 mmHg 32%
    16:00 +31°C° 0 mm 2 m/S 757 mmHg 32%
    17:00 +30°C° 0 mm 1 m/S 757 mmHg 36%
    18:00 +29°C° 0 mm 1 m/S 757 mmHg 41%
    19:00 +29°C° 0 mm 1 m/S 757 mmHg 46%
    20:00 +27°C° 0 mm 1 m/S 757 mmHg 48%
    21:00 +25°C° 0 mm 1 m/S 757 mmHg 49%
    22:00 +23°C° 0 mm 1 m/S 757 mmHg 50%
    23:00 +23°C° 0 mm 1 m/S 757 mmHg 52%

    11 Juni, Donnerstag

    Zeit Temperatur Niederschläge Wind Luftdruck Luftfeuchtigkeit
    00:00 +22°C° 0 mm 1 m/S 757 mmHg 54%
    01:00 +21°C° 0 mm 1 m/S 757 mmHg 55%
    02:00 +21°C° 0 mm 1 m/S 756 mmHg 57%
    03:00 +20°C° 0 mm 1 m/S 756 mmHg 60%
    04:00 +19°C° 0 mm 2 m/S 756 mmHg 62%
    05:00 +20°C° 0 mm 2 m/S 756 mmHg 61%
    06:00 +23°C° 0 mm 2 m/S 756 mmHg 60%
    07:00 +24°C° 0 mm 2 m/S 756 mmHg 59%
    08:00 +26°C° 0 mm 2 m/S 756 mmHg 55%
    09:00 +27°C° 0 mm 2 m/S 756 mmHg 50%
    10:00 +29°C° 0 mm 2 m/S 756 mmHg 45%
    11:00 +29°C° 0 mm 2 m/S 756 mmHg 42%
    12:00 +30°C° 0 mm 2 m/S 756 mmHg 38%
    13:00 +31°C° 0 mm 1 m/S 756 mmHg 34%
    14:00 +31°C° 0 mm 1 m/S 755 mmHg 35%
    15:00 +31°C° 0 mm 1 m/S 755 mmHg 36%
    16:00 +31°C° 0 mm 1 m/S 755 mmHg 37%
    17:00 +30°C° 0 mm 1 m/S 755 mmHg 42%
    18:00 +29°C° 0 mm 1 m/S 754 mmHg 47%
    19:00 +28°C° 0 mm 2 m/S 754 mmHg 52%
    20:00 +27°C° 0 mm 2 m/S 754 mmHg 52%
    21:00 +25°C° 0 mm 1 m/S 754 mmHg 53%
    22:00 +24°C° 0 mm 1 m/S 754 mmHg 53%
    23:00 +23°C° 0 mm 1 m/S 754 mmHg 55%
    Mehr zeigen